This is the latest recevied weather packets stored in our database for station/object HP3ICC-22. If no packets are shown the sender has not sent any weather packets the latest 10 day(s).
| Time | Temp. | Humidity | Pressure | Rain* | Wind** | Luminosity | Snow |
|---|---|---|---|---|---|---|---|
| 1777844564 | 13.33° C | 73% | 1012 hPa | 1.52 mm | - | - | - |
| 1777844504 | 13.33° C | 73% | 1012 hPa | 1.52 mm | - | - | - |
| 1777843364 | 14.44° C | 73% | 1011 hPa | 0.25 mm | - | - | - |
| 1777843304 | 14.44° C | 73% | 1011 hPa | 0.25 mm | - | - | - |
| 1777842163 | 13.33° C | 74% | 1012 hPa | 0.25 mm | - | - | - |
| 1777842103 | 13.33° C | 74% | 1012 hPa | 0.25 mm | - | - | - |
| 1777840963 | 13.89° C | 74% | 1012 hPa | 0 mm | - | - | - |
| 1777840903 | 13.89° C | 74% | 1012 hPa | 0 mm | - | - | - |
| 1777839762 | 14.44° C | 73% | 1011 hPa | 0.25 mm | - | - | - |
| 1777839702 | 14.44° C | 73% | 1011 hPa | 0.25 mm | - | - | - |
| 1777838562 | 13.89° C | 78% | 1012 hPa | 0.25 mm | - | - | - |
| 1777838502 | 13.89° C | 78% | 1012 hPa | 0.25 mm | - | - | - |
| 1777837361 | 14.44° C | 73% | 1012 hPa | 0.25 mm | - | - | - |
| 1777837301 | 14.44° C | 73% | 1012 hPa | 0.25 mm | - | - | - |
| 1777836161 | 15° C | 75% | 1012 hPa | 0 mm | - | - | - |
| 1777836101 | 15° C | 75% | 1012 hPa | 0 mm | - | - | - |
| 1777834960 | 15° C | 76% | 1013 hPa | 0 mm | - | - | - |
| 1777834900 | 15° C | 76% | 1013 hPa | 0 mm | - | - | - |
| 1777833759 | 15° C | 76% | 1013 hPa | 0 mm | - | - | - |
| 1777833699 | 15° C | 76% | 1013 hPa | 0 mm | - | - | - |
| 1777832559 | 13.89° C | 77% | 1013 hPa | 0 mm | - | - | - |
| 1777832499 | 13.89° C | 77% | 1013 hPa | 0 mm | - | - | - |
| 1777831358 | 13.89° C | 78% | 1014 hPa | 0 mm | - | - | - |
| 1777831298 | 13.89° C | 78% | 1014 hPa | 0 mm | - | - | - |
| 1777830158 | 13.89° C | 78% | 1014 hPa | 0 mm | - | - | - |
* Rain latest hour (hover to see other rain measurements)
** Current wind speed in m/s (hover to see current wind gust speed)